When you browse on this site, cookies collect data to enhance your experience and personalize the content and advertising you see.
Visit our Privacy Policy to learn more. By continuing to use the site, you agree to this use of cookies and data.
  • în România
  • Lista ţărilor
  • Pe 7 zile
  • Temperatura apei
  • Meteo pe hartă
  • Widget-uri
  • user-avatar
    Intrare

    Meteo pe oră la Kayrakovo

    Astăzi, 15 Septembrie, Duminică

    Timp Temperatura Precipitaţii Vânt Presiune Umiditate
    00:00 +13°C° 0 mm 4 m/s 750 mmHg 71%
    01:00 +13°C° 0 mm 4 m/s 749 mmHg 71%
    02:00 +13°C° 0 mm 4 m/s 749 mmHg 70%
    03:00 +13°C° 0 mm 3 m/s 749 mmHg 70%
    04:00 +14°C° 0 mm 3 m/s 749 mmHg 68%
    05:00 +14°C° 0.1 mm 2 m/s 749 mmHg 70%
    06:00 +14°C° 0.1 mm 2 m/s 748 mmHg 73%
    07:00 +14°C° 0.1 mm 2 m/s 748 mmHg 76%
    08:00 +14°C° 0 mm 3 m/s 748 mmHg 73%
    09:00 +15°C° 0 mm 4 m/s 748 mmHg 70%
    10:00 +18°C° 0 mm 4 m/s 748 mmHg 66%
    11:00 +17°C° 0.1 mm 5 m/s 748 mmHg 67%
    12:00 +17°C° 0.1 mm 5 m/s 748 mmHg 68%
    13:00 +19°C° 0.1 mm 6 m/s 748 mmHg 69%
    14:00 +17°C° 0.7 mm 5 m/s 748 mmHg 74%
    15:00 +16°C° 0.7 mm 5 m/s 748 mmHg 78%
    16:00 +15°C° 0 mm 4 m/s 748 mmHg 82%
    17:00 +14°C° 0.4 mm 3 m/s 748 mmHg 86%
    18:00 +13°C° 0.4 mm 3 m/s 748 mmHg 90%
    19:00 +12°C° 0.4 mm 3 m/s 748 mmHg 94%
    20:00 +12°C° 0.4 mm 2 m/s 747 mmHg 94%
    21:00 +10°C° 0.4 mm 2 m/s 747 mmHg 95%
    22:00 +11°C° 0.4 mm 1 m/s 747 mmHg 95%
    23:00 +9°C° 0 mm 2 m/s 747 mmHg 95%

    Mâine, 16 Septembrie, Luni

    Timp Temperatura Precipitaţii Vânt Presiune Umiditate
    00:00 +9°C° 0 mm 2 m/s 747 mmHg 94%
    01:00 +9°C° 0 mm 2 m/s 747 mmHg 94%
    02:00 +8°C° 0 mm 2 m/s 747 mmHg 94%
    03:00 +8°C° 0 mm 2 m/s 747 mmHg 94%
    04:00 +8°C° 0 mm 2 m/s 746 mmHg 94%
    05:00 +8°C° 0 mm 2 m/s 746 mmHg 94%
    06:00 +7°C° 0 mm 2 m/s 746 mmHg 94%
    07:00 +7°C° 0 mm 2 m/s 746 mmHg 93%
    08:00 +9°C° 0.1 mm 3 m/s 746 mmHg 88%
    09:00 +10°C° 0.1 mm 3 m/s 746 mmHg 82%
    10:00 +12°C° 0.1 mm 4 m/s 746 mmHg 77%
    11:00 +12°C° 0.4 mm 5 m/s 745 mmHg 74%
    12:00 +13°C° 0.4 mm 6 m/s 745 mmHg 71%
    13:00 +13°C° 0.4 mm 6 m/s 744 mmHg 68%
    14:00 +13°C° 0.2 mm 6 m/s 744 mmHg 67%
    15:00 +13°C° 0.2 mm 6 m/s 744 mmHg 67%
    16:00 +13°C° 0.2 mm 6 m/s 744 mmHg 67%
    17:00 +12°C° 0.1 mm 5 m/s 743 mmHg 71%
    18:00 +10°C° 0.1 mm 5 m/s 743 mmHg 75%
    19:00 +9°C° 0.1 mm 5 m/s 743 mmHg 79%
    20:00 +9°C° 0.1 mm 6 m/s 742 mmHg 82%
    21:00 +9°C° 0.1 mm 6 m/s 742 mmHg 85%
    22:00 +8°C° 0.1 mm 6 m/s 741 mmHg 89%
    23:00 +8°C° 0.5 mm 7 m/s 741 mmHg 90%

    Poimâine, 17 Septembrie, Marţi

    Timp Temperatura Precipitaţii Vânt Presiune Umiditate
    00:00 +9°C° 0.5 mm 7 m/s 740 mmHg 91%
    01:00 +9°C° 0.5 mm 7 m/s 740 mmHg 92%
    02:00 +9°C° 0.5 mm 7 m/s 739 mmHg 92%
    03:00 +9°C° 0.5 mm 6 m/s 739 mmHg 92%
    04:00 +9°C° 0.5 mm 6 m/s 739 mmHg 92%
    05:00 +9°C° 0.1 mm 6 m/s 739 mmHg 92%
    06:00 +9°C° 0.1 mm 6 m/s 740 mmHg 92%
    07:00 +9°C° 0.1 mm 6 m/s 740 mmHg 92%
    08:00 +9°C° 0 mm 6 m/s 740 mmHg 90%
    09:00 +9°C° 0 mm 6 m/s 740 mmHg 87%
    10:00 +10°C° 0 mm 6 m/s 740 mmHg 85%
    11:00 +11°C° 0.1 mm 6 m/s 740 mmHg 81%
    12:00 +13°C° 0.1 mm 6 m/s 740 mmHg 76%
    13:00 +14°C° 0.1 mm 6 m/s 740 mmHg 72%
    14:00 +14°C° 0.3 mm 6 m/s 740 mmHg 72%
    15:00 +14°C° 0.3 mm 6 m/s 740 mmHg 72%
    16:00 +14°C° 0.3 mm 5 m/s 740 mmHg 72%
    17:00 +13°C° 0.3 mm 5 m/s 740 mmHg 76%
    18:00 +12°C° 0.3 mm 4 m/s 740 mmHg 80%
    19:00 +10°C° 0.3 mm 4 m/s 740 mmHg 84%
    20:00 +10°C° 0.1 mm 4 m/s 740 mmHg 86%
    21:00 +10°C° 0.1 mm 4 m/s 740 mmHg 87%
    22:00 +8°C° 0.1 mm 4 m/s 741 mmHg 89%
    23:00 +8°C° 0.1 mm 4 m/s 741 mmHg 90%

    18 Septembrie, Miercuri

    Timp Temperatura Precipitaţii Vânt Presiune Umiditate
    00:00 +8°C° 0.1 mm 4 m/s 741 mmHg 90%
    01:00 +8°C° 0.1 mm 3 m/s 741 mmHg 91%
    02:00 +8°C° 0 mm 3 m/s 741 mmHg 91%
    03:00 +7°C° 0 mm 4 m/s 741 mmHg 91%
    04:00 +7°C° 0 mm 4 m/s 741 mmHg 91%
    05:00 +7°C° 0 mm 4 m/s 741 mmHg 91%
    06:00 +8°C° 0 mm 3 m/s 741 mmHg 90%
    07:00 +7°C° 0 mm 3 m/s 741 mmHg 90%
    08:00 +8°C° 0 mm 4 m/s 741 mmHg 85%
    09:00 +11°C° 0 mm 4 m/s 741 mmHg 79%
    10:00 +12°C° 0 mm 5 m/s 741 mmHg 74%
    11:00 +13°C° 0.1 mm 5 m/s 741 mmHg 71%
    12:00 +13°C° 0.1 mm 5 m/s 741 mmHg 67%
    13:00 +14°C° 0.1 mm 6 m/s 741 mmHg 64%
    14:00 +13°C° 0.1 mm 5 m/s 741 mmHg 64%
    15:00 +13°C° 0.1 mm 5 m/s 741 mmHg 64%
    16:00 +13°C° 0.1 mm 4 m/s 741 mmHg 64%
    17:00 +12°C° 0 mm 3 m/s 741 mmHg 68%
    18:00 +11°C° 0 mm 3 m/s 740 mmHg 72%
    19:00 +10°C° 0 mm 2 m/s 740 mmHg 76%
    20:00 +9°C° 0 mm 3 m/s 740 mmHg 78%
    21:00 +9°C° 0 mm 3 m/s 739 mmHg 79%
    22:00 +9°C° 0 mm 3 m/s 738 mmHg 81%
    23:00 +8°C° 0.7 mm 4 m/s 738 mmHg 85%

    19 Septembrie, Joi

    Timp Temperatura Precipitaţii Vânt Presiune Umiditate
    00:00 +8°C° 0.7 mm 4 m/s 737 mmHg 89%
    01:00 +8°C° 0.7 mm 4 m/s 736 mmHg 93%
    02:00 +8°C° 1.2 mm 5 m/s 736 mmHg 93%
    03:00 +8°C° 1.2 mm 5 m/s 735 mmHg 92%
    04:00 +8°C° 1.2 mm 6 m/s 735 mmHg 92%
    05:00 +8°C° 0.6 mm 5 m/s 735 mmHg 92%
    06:00 +7°C° 0.6 mm 5 m/s 735 mmHg 91%
    07:00 +7°C° 0.6 mm 5 m/s 735 mmHg 91%
    08:00 +8°C° 0.2 mm 5 m/s 736 mmHg 89%
    09:00 +8°C° 0.2 mm 5 m/s 736 mmHg 87%
    10:00 +9°C° 0.2 mm 6 m/s 736 mmHg 85%
    11:00 +9°C° 0.5 mm 6 m/s 737 mmHg 83%
    12:00 +9°C° 0.5 mm 7 m/s 738 mmHg 82%
    13:00 +9°C° 0.5 mm 7 m/s 738 mmHg 81%
    14:00 +10°C° 0.5 mm 7 m/s 739 mmHg 80%
    15:00 +10°C° 0.5 mm 7 m/s 740 mmHg 78%
    16:00 +10°C° 0.5 mm 7 m/s 741 mmHg 77%
    17:00 +9°C° 0.6 mm 6 m/s 741 mmHg 81%
    18:00 +8°C° 0.6 mm 5 m/s 742 mmHg 84%
    19:00 +7°C° 0.6 mm 4 m/s 743 mmHg 88%
    20:00 +7°C° 0.1 mm 4 m/s 743 mmHg 90%
    21:00 +6°C° 0.1 mm 4 m/s 744 mmHg 92%
    22:00 +6°C° 0.1 mm 4 m/s 744 mmHg 93%
    23:00 +5°C° 0 mm 4 m/s 745 mmHg 94%

    20 Septembrie, Vineri

    Timp Temperatura Precipitaţii Vânt Presiune Umiditate
    00:00 +5°C° 0 mm 3 m/s 746 mmHg 95%
    01:00 +5°C° 0 mm 3 m/s 746 mmHg 96%
    02:00 +4°C° 0 mm 3 m/s 747 mmHg 96%
    03:00 +4°C° 0 mm 3 m/s 747 mmHg 97%
    04:00 +4°C° 0 mm 3 m/s 747 mmHg 97%
    05:00 +5°C° 0 mm 2 m/s 748 mmHg 97%
    06:00 +5°C° 0 mm 2 m/s 748 mmHg 97%
    07:00 +5°C° 0 mm 2 m/s 749 mmHg 97%
    08:00 +6°C° 0.2 mm 2 m/s 749 mmHg 93%
    09:00 +7°C° 0.2 mm 2 m/s 749 mmHg 89%
    10:00 +8°C° 0.2 mm 2 m/s 750 mmHg 86%
    11:00 +8°C° 0.7 mm 2 m/s 749 mmHg 84%
    12:00 +8°C° 0.7 mm 2 m/s 749 mmHg 83%
    13:00 +8°C° 0.7 mm 2 m/s 749 mmHg 82%
    14:00 +9°C° 0.3 mm 2 m/s 749 mmHg 80%
    15:00 +9°C° 0.3 mm 2 m/s 749 mmHg 78%
    16:00 +9°C° 0.3 mm 2 m/s 750 mmHg 76%
    17:00 +9°C° 0.1 mm 1 m/s 750 mmHg 80%
    18:00 +8°C° 0.1 mm 1 m/s 750 mmHg 84%
    19:00 +7°C° 0.1 mm 1 m/s 750 mmHg 88%
    20:00 +7°C° 0 mm 1 m/s 750 mmHg 89%
    21:00 +6°C° 0 mm 1 m/s 750 mmHg 90%
    22:00 +5°C° 0 mm 2 m/s 751 mmHg 91%
    23:00 +6°C° 0 mm 1 m/s 751 mmHg 91%
    Arată mai mult